sat.trackr.live / text

‹ back to catalog

STARLINK-5180

NORAD 55318 · 2023-010BB

PAYLOAD ACTIVE UNKNOWN

§ Identity

Operator
Country
US
Launch date
2023-01-19
Launch site
AFWTR
Launch vehicle
Mass (kg)
RCS (m²)

Purposes: comms

External: N2YO · Heavens-Above · Gunter

§ Orbital elements

Epoch: 2026-09-20T22:00:03.000096Z

Period
95.62 min
Inclination
70.0007°
Eccentricity
0.0003815
Mean motion
15.05886873 rev/d
Perigee alt
546.1 km
Apogee alt
551.4 km
Semi-major
6,926.9 km
B*
3.5147e-3
RAAN
232.1318°
Arg perigee
232.3452°
Mean anomaly
271.6622°
Rev number
566

§ Raw data

STARLINK-51801 55318U 23010BB  26263.91670139  .00051456  00000+0  35147-2 0  99952 55318  70.0007 232.1318 0003815 232.3452 271.6622 15.05886873  5660

JSON: /api/v1/satellites/55318 · /tle

For live sub-satellite position, see the globe view (requires WebGL).

§ Visibility from observer

Set your observer location to see the next 7 days of passes ≥ 10°. The values pass through the URL so the page stays shareable.

No JS? Fill the form by hand. The geolocation button needs JavaScript.